Regional Weather Roundup
Issued by NWS

Home | Current Version | Previous Version | Text Only | Print | Product List | Glossary On
Versions: 1 2 3 4 5 6 7 8 9 10 11 12 13 14 15 16 17 18 19 20 21 22 23 24 25 26 27 28 29 30 31 32 33 34 35 36 37 38 39 40 41 42 43 44 45 46 47 48 49 50
000
ASUS45 KBOI 240510
RWRID

IDAHO REGIONAL WEATHER ROUNDUP
NATIONAL WEATHER SERVICE BOISE ID
1000 PM MST MON JAN 23 2017

NOTE: "FAIR" INDICATES FEW OR NO CLOUDS BELOW 12000 FEET
WITH NO SIGNIFICANT WEATHER AND/OR OBSTRUCTIONS TO VISIBILITY

IDZ012-014-240600-
SOUTHWEST IDAHO


CITY           SKY/WX    TMP DP  RH WIND       PRES   REMARKS
BOISE          CLOUDY    28  24  85 W10       29.68S WCI  19
CALDWELL       CLOUDY    29  25  85 W10       29.73R WCI  20
MOUNTAIN HOME  CLOUDY    28  28 100 NW16      29.67S WCI  16
$$

IDZ016-017-240600-
SOUTHCENTRAL IDAHO


CITY           SKY/WX    TMP DP  RH WIND       PRES   REMARKS
BURLEY         CLOUDY    29  23  78 W16       29.59R WCI  17
JEROME         CLOUDY    27  25  92 SW20G29   29.60R WCI  13
TWIN FALLS     CLOUDY    27  21  78 SW18      29.62R WCI  14
$$

IDZ019>023-240600-
SOUTHEAST IDAHO


CITY           SKY/WX    TMP DP  RH WIND       PRES   REMARKS
IDAHO FALLS    LGT SNOW  27  25  92 NW20      29.50R FOG     WCI  13
POCATELLO      LGT SNOW  26  24  92 W18G28    29.59R FOG     WCI  13
REXBURG        LGT SNOW  27  26  96 NE6       29.46R VSB 3/4 WCI  20
$$

IDZ006-010-011-018-031-032-240600-
CENTRAL IDAHO MOUNTAINS


CITY           SKY/WX    TMP DP  RH WIND       PRES   REMARKS
MCCALL         CLOUDY    20  16  84 NW5       29.62R WCI  13
HAILEY         CLOUDY    25  25 100 SE3       29.52R
STANLEY          N/A     20  16  84 CALM      29.55S
SALMON         CLOUDY     9   7  92 CALM      29.68R
CHALLIS        CLOUDY    14  13  95 CALM      29.59R
$$

IDZ002-004-006-007-026-240600-
NORTHERN IDAHO


CITY           SKY/WX    TMP DP  RH WIND       PRES   REMARKS
LEWISTON       FLURRIES  31  27  85 SW3       29.90S
LOWELL           N/A     34  27  75 SE7       29.86R WCI  28
COEUR D`ALENE  CLOUDY    31  30  96 W6        29.84R WCI  25
MULLAN PASS    CLOUDY    20  17  88 CALM      29.68S
$$



USA.gov is the U.S. government's official web portal to all federal, state and local government web resources and services.